Weather reports worldwide

Advertisment
Abbeville, France (7005): temperature & dewpoint: 03.12.2019 22:00:00 - 09.12.2019 22:00:00 (CET)Abbeville, France (7005): temperature 5cm: 03.12.2019 22:00:00 - 09.12.2019 22:00:00 (CET)Abbeville, France (7005): temperature -20cm & temperature -100cm: 03.12.2019 22:00:00 - 09.12.2019 22:00:00 (CET)Abbeville, France (7005): wind speed & gusts: 03.12.2019 22:00:00 - 09.12.2019 22:00:00 (CET)Abbeville, France (7005): wind direction: 03.12.2019 22:00:00 - 09.12.2019 22:00:00 (CET)Abbeville, France (7005): reduced air pressure: 03.12.2019 22:00:00 - 09.12.2019 22:00:00 (CET)Abbeville, France (7005): visibility: 03.12.2019 22:00:00 - 09.12.2019 22:00:00 (CET)Abbeville, France (7005): sunshine duration: 03.12.2019 22:00:00 - 09.12.2019 22:00:00 (CET)Abbeville, France (7005): precipitation: 03.12.2019 22:00:00 - 09.12.2019 22:00:00 (CET)
Date & Time tt [°C] td [°C] tt 5cm [°C] tt -20cm [°C] tt -100cm [°C] ff [km/h] ff [kn] fx [km/h] fx [kn] dd ppp [hPa] vv [km] sd [min] rr [mm]
09.12.2019 22:00:00 - - - - - - - - - - - - - -
09.12.2019 21:00:00 4,8 0,4 3,4 6,9 9,0 13 7 26 14 NW 1024,2 20 0 0,0
09.12.2019 20:00:00 5,6 1,1 4,3 7,0 9,0 16 9 29 16 NNW 1022,9 20 0 0,0
09.12.2019 19:00:00 6,2 1,1 5,1 7,0 9,0 14 8 29 16 NW 1021,4 20 0 0,0
09.12.2019 18:00:00 6,9 1,4 5,9 7,1 9,0 19 10 43 23 NW 1019,7 20 0 0,0
09.12.2019 17:00:00 7,5 1,1 6,4 7,2 9,0 29 16 60 33 NW 1017,9 20 2 0,0
09.12.2019 16:00:00 8,0 1,2 7,5 7,2 9,0 34 19 59 32 NW 1015,6 20 3 0,0
09.12.2019 15:00:00 8,5 1,4 8,1 7,2 9,0 37 20 57 31 NW 1013,5 20 0 0,0
09.12.2019 14:00:00 8,5 2,7 8,2 7,2 9,0 37 20 67 36 NW 1011,6 20 2 0,0
09.12.2019 13:00:00 8,6 3,4 8,2 7,2 9,0 44 24 69 38 NW 1009,8 20 0 0,0
09.12.2019 12:00:00 8,5 3,9 8,0 7,2 9,0 38 20 69 37 NW 1007,6 20 0 0,0
09.12.2019 11:00:00 8,6 4,2 7,1 7,2 9,0 37 20 63 34 NW 1005,6 20 0 0,0
09.12.2019 10:00:00 8,5 5,4 7,3 7,1 9,0 30 16 61 33 NW 1002,9 20 0 0,0
09.12.2019 09:00:00 8,3 6,3 7,2 7,1 9,0 37 20 65 35 NW 999,9 16 0 1,2
09.12.2019 08:00:00 8,6 7,1 7,4 7,1 9,0 37 20 58 31 W 997,6 6 0 0,2
09.12.2019 07:00:00 8,6 6,7 6,0 7,1 9,0 29 15 67 36 W 996,9 8 0 0,6
09.12.2019 06:00:00 8,6 4,8 5,9 7,1 9,0 31 17 55 30 W 996,7 9 0 1,2
09.12.2019 05:00:00 7,9 5,2 6,5 7,1 9,0 33 18 56 30 W 996,9 11 0 0,4
09.12.2019 04:00:00 8,9 5,1 5,9 7,1 9,0 36 19 54 29 W 996,6 19 0 0,4
09.12.2019 03:00:00 6,8 5,3 5,3 7,2 9,0 20 11 63 34 SSW 996,4 11 0 0,4
09.12.2019 02:00:00 6,4 4,1 5,3 7,3 9,0 20 11 49 27 SSW 998,3 19 0 0,2
09.12.2019 01:00:00 6,5 3,6 5,8 7,4 9,0 22 12 68 37 SSW 999,2 20 0 0,0
09.12.2019 00:00:00 7,0 4,1 5,8 7,5 9,0 21 11 46 25 SW 1000,3 20 0 0,0
08.12.2019 23:00:00 7,0 4,0 6,2 7,6 9,0 22 12 51 27 SW 1001,6 20 0 0,4
08.12.2019 22:00:00 7,8 5,9 6,6 7,7 9,0 16 9 44 24 SW 1002,5 11 0 0,4
08.12.2019 21:00:00 8,2 5,5 6,8 7,8 9,0 16 9 37 20 WSW 1002,9 19 0 0,0
08.12.2019 20:00:00 7,6 4,5 6,0 7,9 9,0 20 11 57 31 WSW 1003,0 20 0 0,2
08.12.2019 19:00:00 8,6 5,9 7,4 8,0 9,0 21 11 50 27 SW 1003,2 20 0 0,0
08.12.2019 18:00:00 8,0 5,5 6,6 8,0 9,0 23 13 77 41 WSW 1003,6 20 0 1,2
08.12.2019 17:00:00 8,6 6,2 7,2 8,0 9,0 35 19 61 33 WSW 1004,1 9 9 0,2
08.12.2019 16:00:00 9,4 6,8 8,3 8,0 9,0 25 14 48 26 WSW 1004,4 16 1 0,2
08.12.2019 15:00:00 9,5 6,2 8,5 7,9 9,0 37 20 68 37 W 1004,9 16 3 0,2
08.12.2019 14:00:00 10,8 8,6 9,1 7,8 9,0 29 16 46 25 W 1005,3 9 21 0,8
08.12.2019 13:00:00 11,2 6,7 11,1 7,7 9,0 31 17 59 32 W 1005,8 11 29 0,0
08.12.2019 12:00:00 11,3 7,8 11,1 7,6 9,0 34 19 54 29 W 1006,1 12 10 0,0
08.12.2019 11:00:00 11,3 8,5 10,3 7,5 9,0 37 20 52 28 W 1006,1 15 0 0,0
08.12.2019 10:00:00 11,1 9,4 9,9 7,4 9,0 31 17 61 33 W 1005,8 20 0 0,4
08.12.2019 09:00:00 10,4 9,8 9,2 7,4 9,0 15 8 36 19 SW 1005,1 10 0 0,0
08.12.2019 08:00:00 9,7 8,9 8,7 7,3 9,0 16 9 37 20 SSW 1005,3 10 0 0,8
08.12.2019 07:00:00 9,3 8,2 8,3 7,3 9,0 16 9 40 22 SSW 1005,7 11 0 2,4
08.12.2019 06:00:00 9,4 7,3 8,3 7,3 9,0 16 9 37 20 SSW 1006,5 15 0 0,2
08.12.2019 05:00:00 9,8 6,7 9,0 7,3 9,0 15 8 36 19 SSW 1007,7 20 0 0,0
08.12.2019 04:00:00 9,7 6,6 9,2 7,3 9,0 14 7 35 19 SSW 1008,3 20 0 0,0
08.12.2019 03:00:00 9,7 6,4 8,8 7,2 9,0 13 7 36 20 SSW 1009,7 20 0 0,0
08.12.2019 02:00:00 9,3 6,2 8,7 7,3 9,0 9 5 27 15 SSW 1011,1 20 0 0,0
08.12.2019 01:00:00 9,4 5,8 8,9 7,3 9,0 10 6 27 15 SSW 1012,4 20 0 0,0
08.12.2019 00:00:00 9,4 5,6 8,8 7,3 9,0 10 6 25 14 SW 1013,8 20 0 0,0
07.12.2019 23:00:00 9,3 6,0 8,8 7,3 9,0 9 5 24 13 SSW 1014,7 20 0 0,0
07.12.2019 22:00:00 9,2 6,6 8,8 7,3 9,0 7 4 16 8 SW 1015,5 20 0 0,0
07.12.2019 21:00:00 9,2 7,3 8,7 7,3 9,0 7 4 14 8 SSW 1015,9 20 0 0,0
07.12.2019 20:00:00 9,0 7,3 8,5 7,3 9,1 6 3 16 9 SSW 1016,3 20 0 0,0
07.12.2019 19:00:00 9,3 7,2 8,8 7,3 9,0 6 3 16 9 SSW 1016,6 20 0 0,0
07.12.2019 18:00:00 9,5 6,9 9,0 7,2 9,0 8 4 16 9 SW 1016,7 20 0 0,0
07.12.2019 17:00:00 9,6 7,2 9,2 7,2 9,1 8 5 17 9 SSW 1016,4 19 0 0,0
07.12.2019 16:00:00 9,8 7,2 9,2 7,1 9,1 8 4 28 15 WSW 1016,5 20 0 0,0
07.12.2019 15:00:00 10,5 7,6 10,3 6,9 9,1 8 5 17 9 SW 1016,1 20 0 0,0
07.12.2019 14:00:00 10,1 8,0 10,0 6,8 9,1 10 6 20 11 WSW 1016,6 20 0 0,0
07.12.2019 13:00:00 10,0 8,3 10,0 6,7 9,1 10 5 19 10 SW 1016,8 15 0 0,0
07.12.2019 12:00:00 10,0 8,4 9,5 6,6 9,1 9 5 21 12 SW 1016,8 19 9 0,0
07.12.2019 11:00:00 9,5 7,9 8,4 6,5 9,1 9 5 17 9 WSW 1016,9 17 26 0,0
07.12.2019 10:00:00 8,6 7,4 8,1 6,5 9,1 7 4 18 10 SW 1016,5 13 0 0,0
07.12.2019 09:00:00 8,5 7,4 7,9 6,5 9,1 11 6 17 9 W 1016,2 16 0 0,0
07.12.2019 08:00:00 8,4 7,5 7,6 6,5 9,1 9 5 15 8 SW 1015,4 14 0 0,0
07.12.2019 07:00:00 8,6 7,5 7,8 6,4 9,1 6 4 16 9 WSW 1014,9 12 0 0,0
07.12.2019 06:00:00 8,7 7,3 7,8 6,4 9,1 5 3 15 8 WSW 1014,3 17 0 0,0
07.12.2019 05:00:00 8,7 6,3 7,8 6,4 9,2 12 6 20 11 WSW 1013,8 20 0 0,0
07.12.2019 04:00:00 8,9 6,3 8,0 6,4 9,1 11 6 18 10 WSW 1013,4 20 0 0,0
07.12.2019 03:00:00 8,9 6,2 7,8 6,4 9,1 13 7 24 13 W 1012,9 20 0 0,0
07.12.2019 02:00:00 9,2 5,9 8,2 6,4 9,1 17 9 31 17 W 1012,0 20 0 0,0
07.12.2019 01:00:00 9,9 5,9 8,7 6,4 9,1 23 12 37 20 W 1011,8 20 0 0,0
07.12.2019 00:00:00 9,9 5,7 8,7 6,4 9,2 27 15 49 26 W 1011,0 20 0 0,0
06.12.2019 23:00:00 10,2 6,9 9,1 6,2 9,2 28 15 56 30 W 1010,6 20 0 0,0
06.12.2019 22:00:00 10,4 7,3 9,3 6,1 9,1 29 16 56 30 W 1009,7 20 0 0,0
06.12.2019 21:00:00 10,6 9,7 9,7 6,0 9,2 32 17 53 29 W 1008,6 3,8 0 1,0
06.12.2019 20:00:00 10,6 9,2 9,3 5,9 9,2 20 11 40 21 WSW 1008,0 20 0 0,0
06.12.2019 19:00:00 9,9 9,0 8,6 5,8 9,2 20 11 37 20 SW 1007,8 20 0 0,2
06.12.2019 18:00:00 9,2 8,4 8,5 5,6 9,2 16 8 44 24 SW 1007,8 6 0 0,0
06.12.2019 17:00:00 9,2 8,1 8,0 5,5 9,2 14 8 37 20 SSW 1007,8 16 0 0,0
06.12.2019 16:00:00 8,5 7,6 8,0 5,3 9,2 13 7 39 21 SSW 1008,3 20 0 0,0
06.12.2019 15:00:00 8,5 7,9 7,9 5,2 9,3 16 9 47 25 SSW 1008,9 8 0 0,6
06.12.2019 14:00:00 8,2 7,4 7,6 5,0 9,3 18 10 40 22 SSW 1009,5 16 0 0,6
06.12.2019 13:00:00 8,3 7,4 7,9 4,9 9,3 16 9 42 23 SSW 1010,7 3,7 0 0,2
06.12.2019 12:00:00 8,2 7,3 7,2 4,8 9,3 14 7 32 18 SSW 1012,1 20 0 0,4
06.12.2019 11:00:00 7,6 6,8 6,2 4,7 9,3 13 7 30 16 SSW 1012,9 10 0 0,4
06.12.2019 10:00:00 6,7 5,8 5,5 4,5 9,3 12 7 30 16 SSW 1013,3 14 0 0,0
06.12.2019 09:00:00 5,9 5,2 5,1 4,5 9,3 10 6 25 13 S 1014,1 8 0 0,2
06.12.2019 08:00:00 5,5 4,9 4,8 4,4 9,3 10 6 22 12 S 1014,4 5 0 1,0
06.12.2019 07:00:00 5,4 4,5 4,5 4,3 9,3 9 5 24 13 S 1014,9 7 0 0,2
06.12.2019 06:00:00 5,1 3,9 4,3 4,3 9,3 12 7 32 17 SSW 1014,9 9 0 0,2
06.12.2019 05:00:00 5,0 3,5 4,4 4,2 9,4 12 7 27 15 SSW 1015,5 12 0 0,0
06.12.2019 04:00:00 4,7 3,0 4,0 4,2 9,4 12 6 28 15 S 1016,1 13 0 0,0
06.12.2019 03:00:00 4,3 2,8 3,5 4,1 9,4 11 6 26 14 S 1016,9 11 0 0,0
06.12.2019 02:00:00 3,9 2,6 3,1 4,1 9,4 11 6 22 12 S 1017,5 9 0 0,0
06.12.2019 01:00:00 3,5 2,5 2,8 4,1 9,4 10 5 21 11 S 1018,3 7 0 0,0
06.12.2019 00:00:00 3,1 2,2 2,7 4,1 9,4 10 6 23 13 S 1019,2 6 0 0,0
05.12.2019 23:00:00 3,3 2,6 2,3 4,2 9,4 11 6 24 13 S 1019,6 5 0 0,0
05.12.2019 22:00:00 3,1 2,4 2,2 4,2 9,4 11 6 24 13 SSW 1020,1 4,8 0 0,0
05.12.2019 21:00:00 2,8 2,2 2,0 4,3 9,4 9 5 19 11 S 1020,5 3,5 0 0,0
05.12.2019 20:00:00 2,7 2,1 2,0 4,3 9,4 9 5 18 10 S 1020,9 2,6 0 0,0
05.12.2019 19:00:00 3,4 2,5 2,9 4,3 9,5 11 6 24 13 S 1021,0 3,8 0 0,0
05.12.2019 18:00:00 3,7 2,8 2,7 4,2 9,5 10 5 18 10 S 1021,0 4,2 0 0,0
05.12.2019 17:00:00 3,9 2,9 3,3 4,1 9,5 8 4 15 8 S 1021,2 4,6 5 0,0
05.12.2019 16:00:00 4,6 3,7 5,0 3,9 9,5 6 3 13 7 S 1022,0 4,8 0 0,0
05.12.2019 15:00:00 4,7 4,1 5,9 3,7 9,5 5 3 10 6 S 1022,2 2,9 7 0,0
05.12.2019 14:00:00 3,9 3,5 5,0 3,5 9,5 6 4 11 6 SSE 1022,3 3,1 23 0,0
05.12.2019 13:00:00 2,9 2,2 3,4 3,4 9,5 7 4 16 9 SSE 1022,8 3,3 51 0,0
05.12.2019 12:00:00 1,6 1,3 2,3 3,4 9,5 9 5 18 10 SSE 1023,2 2,5 48 0,0
05.12.2019 11:00:00 0,9 0,9 0,0 3,3 9,5 8 5 15 8 SSE 1023,5 2,3 37 0,0
05.12.2019 10:00:00 -0,1 -0,1 -0,6 3,3 9,5 9 5 13 7 SSE 1023,4 0,8 0 0,0
05.12.2019 09:00:00 -0,7 -0,7 -1,2 3,3 9,5 7 4 10 5 SE 1023,6 0,5 0 0,0
05.12.2019 08:00:00 -1,2 -1,3 -1,3 3,4 9,6 5 3 13 7 SE 1023,1 0,1 0 0,0
05.12.2019 07:00:00 -0,9 -1,0 -1,2 3,4 9,6 0 0 13 7 N 1022,6 0,1 0 0,0
05.12.2019 06:00:00 -0,6 -0,6 -0,8 3,4 9,6 7 4 11 6 SSE 1021,9 0,2 0 0,0
05.12.2019 05:00:00 -0,7 -0,7 -0,9 3,4 9,6 6 3 11 6 SSE 1022,5 0,2 0 0,0
05.12.2019 04:00:00 -1,0 -1,1 -1,6 3,5 9,6 4 2 8 5 SSW 1022,4 0,2 0 0,0
05.12.2019 03:00:00 -1,7 -1,8 -3,3 3,5 9,6 8 4 11 6 SSE 1022,3 0,2 0 0,0
05.12.2019 02:00:00 -3,0 -3,3 -3,4 3,5 9,6 0 0 8 5 N 1021,6 0,1 0 0,0
05.12.2019 01:00:00 -2,2 -2,3 -2,5 3,6 9,6 6 3 9 5 SE 1021,6 0,1 0 0,0
05.12.2019 00:00:00 -1,9 -2,0 -2,4 3,7 9,7 5 3 14 7 ESE 1021,7 0,1 0 0,0
04.12.2019 23:00:00 -1,3 -1,4 -1,6 3,6 9,6 8 4 12 7 SE 1021,6 0,1 0 0,0
04.12.2019 22:00:00 -0,8 -0,8 -0,9 3,7 9,7 5 3 11 6 S 1021,9 0,2 0 0,0
04.12.2019 21:00:00 -0,9 -1,0 -0,9 3,7 9,7 9 5 14 8 SE 1021,6 0,1 0 0,0
04.12.2019 20:00:00 -0,4 -0,4 -0,5 3,7 9,7 6 3 10 5 SE 1021,2 0,1 0 0,0
04.12.2019 19:00:00 -0,3 -0,3 -0,8 3,7 9,7 5 3 17 9 SSE 1020,7 0,2 0 0,0
04.12.2019 18:00:00 -0,5 -0,6 -0,8 3,7 9,7 11 6 16 8 SE 1020,3 0,1 0 0,0
04.12.2019 17:00:00 -0,1 -0,2 -0,2 3,6 9,7 7 4 11 6 SSE 1020,5 0,1 0 0,0
04.12.2019 16:00:00 0,6 0,3 0,8 3,5 9,7 4 2 14 7 S 1020,5 0,2 17 0,0
04.12.2019 15:00:00 1,0 0,7 2,1 3,5 9,7 4 2 11 6 SSE 1020,4 1,2 7 0,0
04.12.2019 14:00:00 1,7 1,4 2,0 3,4 9,7 3 2 17 9 SSE 1020,6 2,5 28 0,2
04.12.2019 13:00:00 0,6 0,5 1,2 3,5 9,7 9 5 16 9 SSE 1021,0 0,6 12 0,0
04.12.2019 12:00:00 0,3 0,3 -0,6 3,5 9,7 7 4 11 6 SE 1021,3 2,5 0 0,0
04.12.2019 11:00:00 -0,9 -1,0 -1,2 3,5 9,8 6 4 13 7 E 1022,1 0,2 0 0,0
04.12.2019 10:00:00 -1,4 -1,5 -2,2 3,6 9,8 8 5 16 9 SE 1022,3 0,3 0 0,0
04.12.2019 09:00:00 -2,1 -2,4 -2,4 3,6 9,8 6 4 11 6 ESE 1022,4 0,2 0 0,0
04.12.2019 08:00:00 -1,9 -2,0 -2,0 3,7 9,8 7 4 10 5 ESE 1022,2 0,2 0 0,0
04.12.2019 07:00:00 -1,5 -1,6 -1,8 3,7 9,8 5 3 10 5 SE 1022,3 0,2 0 0,0
04.12.2019 06:00:00 -1,6 -1,7 -3,0 3,7 9,8 7 4 12 7 SSE 1022,6 0,2 0 0,0
04.12.2019 05:00:00 -2,4 -3,0 -3,6 3,8 9,8 4 2 11 6 S 1022,6 0,4 0 0,0
04.12.2019 04:00:00 -1,5 -1,8 -3,0 3,8 9,8 8 4 10 6 SE 1023,0 6 0 0,0
04.12.2019 03:00:00 -1,6 -1,9 -2,6 3,9 9,8 6 4 11 6 ESE 1023,8 3,4 0 0,0
04.12.2019 02:00:00 -1,7 -2,0 -2,3 4,0 9,9 6 3 10 5 ESE 1024,4 4,6 0 0,0
04.12.2019 01:00:00 -1,7 -1,8 -1,9 4,0 9,8 7 4 11 6 SE 1025,1 0,1 0 0,0
04.12.2019 00:00:00 -1,5 -1,6 -1,8 4,1 9,9 9 5 14 7 SE 1025,7 0,2 0 0,0
03.12.2019 23:00:00 -1,4 -1,5 -1,5 4,1 9,9 8 4 12 6 ESE 1026,0 0,1 0 0,0
03.12.2019 22:00:00 -0,9 -1,0 -1,1 4,2 9,9 9 5 17 9 SE 1026,5 0,2 0 0,0

tt = temperature
td = dewpoint
tt 5cm = temperature 5cm
tt -20cm = temperature -20cm
tt -100cm = temperature -100cm
ff = wind speed
fx = gusts
dd = wind direction
ppp = reduced air pressure
vv = visibility
sd = sunshine duration
rr = precipitation

Next stations